INTELSAT 33E DEB, 64394

Orbit data source: Space-Track

INTELSAT 33E DEB, 64394 is space debris in GEO originally from a launch on Wed, 24 Aug 2016 UTC launched from the French Guiana (FRGUI). Debris objects in space refer to the collection of defunct objects orbiting the Earth. Examples of debris include non-operational satellites, rocket bodies, and fragments generated from explosions, collisions, or faulty payload assembly.

Not visible in the next 10 days
Identifier
64394, 2016-053Y
Orbit
GEO
Country
Flag of USUS / ITSO
Related business
Manufacturer
Boeing/ES
Mission
Spacecraft
Bus & Motor
Unknown
Mass
Unknown
Launch date (UTC)
2016-08-24 (10 years ago)
Launch vehicle
Unknown
Launch site
French Guiana (FRGUI)
Object type
Payload
Rocket body
Debris
Shape & HBR
Unknown shape, 1.1 m
Radar Cross Section
RCS unknown

Expand to show TLE details & history
Last TLE update: 1 day ago

TLE from 1 day ago
0 INTELSAT 33E DEB
1 64394U 16053Y   26120.24305510 -.00000191  00000-0  00000-0 0  9994
2 64394   1.2446  41.7903 0628951 339.9527  17.1991  1.08358295  5923
Epoch: 2026-04-30T05:49Z
TLE epoch observation values (Epoch: 2026-04-30T05:49:59.960Z)
Latitude
-0.00002°
Longitude
95.54453°
Altitude
31,258.397 km
Speed
3.351 km/s
True Right ascension
02h 44m 56s
True Declination
0° 00' 00"
Sunlit
Object was in daylight at epoch
Visualization orbit readout
Latitude
Unknown
Longitude
Unknown
Altitude
Unknown
Speed
Unknown
Apparent Right ascension
Unknown
Apparent Declination
Unknown
Sunlit
N/A
Visualization observer readout
Local Sidereal Time
20:33:37
Azimuth
Unknown
Elevation
Unknown
Doppler factor
Unknown
Orbital elements
Apogee altitude
36,181.351 km
Perigee altitude
31,144.573 km
Semi-major axis
40,041.099 km
Eccentricity
0.0629
Inclination
1.2446°
RAAN
41.7903°
Arg. of periapsis
339.9527°
True anomaly
19.50204°
Mean anomaly
17.1991°
Eccentric anomaly
18.33255°
Mean motion
0.27088 °/min
Orbital period
1,328.98 mins
BSTAR
0
Loading maneuver chart data...
Computing Atmospheric mass density...
Loading historical data...
Loading historical data...
Loading historical data...
Loading historical data...
Loading historical data...
Loading historical data...
Loading historical data...

Documentation

Showing up to 5 results
|